Location: Barrio San Juan Bautista
(40.8329°N, 4.8452°W)
Time: 09:13:26
(UTC+00:00)

Daily predictions for brighter satellites

Satellite Brightness Start Highest point End
(mag) Time Altitude Azimuth Time Altitude Azimuth Time Altitude Azimuth
Cosmos 2233 Rocket 4.4 18:06:31 10° N 18:12:26 42° ENE 18:18:20 10° SSE
Cosmos 2360 Rocket 3.5 18:08:38 10° NW 18:14:00 47° WSW 18:19:21 10° S
Meteor 1-11 4.3 18:09:56 10° S 18:15:21 55° E 18:20:54 10° NNE
Cosmos 1725 Rocket 4.0 18:11:15 10° N 18:17:29 68° E 18:23:42 10° SSE
Cosmos 1315 Rocket 3.1 18:14:38 10° N 18:18:13 39° ENE 18:21:47 10° SSE
Cosmos 1867 4.1 18:13:59 10° SW 18:19:21 63° NW 18:24:47 10° NNE
Lacrosse 5 rocket 2.8 18:20:54 10° W 18:23:46 24° NW 18:26:43 10° NNE
Atlas Centaur 2 4.0 18:17:35 10° SW 18:24:11 30° S 18:29:59 10° ESE
SL-08 R/B 4.5 18:18:13 10° N 18:24:19 60° E 18:30:18 10° SSE
SAR-Lupe-1 4.0 18:21:45 10° SSE 18:25:14 60° ENE 18:28:47 10° N
Cosmos 2061 Rocket 4.3 18:21:31 10° N 18:27:40 48° ENE 18:33:42 10° SSE
SJ-6F 4.4 18:24:51 10° SSE 18:28:49 86° WSW 18:32:46 10° NNW
CZ-4C R/B 1.6 18:25:04 10° SSW 18:29:01 89° WNW 18:34:00 10° NE
Helios 1A Rocket 4.3 18:28:45 11° E 18:29:04 11° E 18:30:04 10° ESE
BlueWalker 3 2.8 18:28:57 10° WNW 18:32:23 46° SW 18:35:47 10° SSE
Radarsat Rocket 4.1 18:27:39 10° SE 18:33:12 49° ENE 18:39:03 10° N
CARTOSAT-1 4.2 18:29:28 10° SE 18:33:14 32° ENE 18:36:58 10° N
Cosmos 2151 Rocket 3.7 18:28:51 10° N 18:33:17 56° E 18:37:41 10° SSE
Tiangong -0.2 18:32:59 10° SSW 18:35:13 18° SSE 18:37:06 12° ESE
USA 290 3.3 18:34:01 10° SW 18:37:06 45° WNW 18:40:11 10° N
NOSS 0 Rocket 4.3 18:33:10 10° NNW 18:39:08 45° ENE 18:45:03 10° SE
Cosmos 1356 Rocket 3.2 18:36:57 10° N 18:40:51 63° E 18:44:46 10° SSE
SAR-Lupe-4 3.7 18:37:49 10° S 18:41:22 79° WSW 18:44:57 10° NNW
Cosmos 2297 Rocket 2.5 18:40:01 10° S 18:45:21 45° ESE 18:50:44 10° NE
Cosmos 1607 4.3 18:39:33 10° SW 18:45:37 66° NW 18:51:47 10° NNE
BREEZE-M DEB (TANK) 4.3 18:46:05 10° NW 18:49:36 42° NNE 18:56:52 16° E
Cosmos 1975 Rocket 4.3 18:46:58 10° SE 18:50:01 19° E 18:50:37 18° ENE
Cosmos 1455 Rocket 3.8 18:49:47 10° NNE 18:53:30 28° ENE 18:57:11 10° SE
Cosmos 2221 Rocket 3.5 18:50:14 10° S 18:54:39 73° E 18:59:08 10° NNE
YAOGAN 1 2.6 18:50:46 10° S 18:55:00 83° W 18:59:17 10° NNW
Cosmos 1125 Rocket 3.7 18:51:06 10° N 18:56:07 47° ENE 19:01:06 10° SE
Delta 2 Rocket 4.2 18:56:52 10° SW 18:59:27 24° SSE 19:00:39 19° SE
NOAA 6 3.9 18:56:15 10° SSE 19:01:20 69° ENE 19:06:28 10° N
Okean 2 Rocket 3.0 18:58:04 10° N 19:02:28 89° ENE 19:06:50 10° S
Spot 4 Rocket 4.0 18:58:25 10° SSE 19:03:31 89° E 19:08:39 10° NNW
Okean 1 Rocket 2.9 19:01:23 10° N 19:05:47 83° E 19:10:08 10° S
DMSP B5D1-3 4.4 19:01:54 10° NNE 19:07:00 69° ESE 19:12:05 10° S
NOSS 3-3 (C) 4.0 19:05:01 10° SW 19:10:02 63° NW 19:16:01 10° NNE
SL-19 R/B 4.4 19:05:22 10° SSE 19:11:37 82° ENE 19:17:39 10° NNW
Sich 1 Rocket 3.6 19:07:36 10° N 19:12:11 89° W 19:16:43 10° S
COSMOS 2428 2.8 19:07:43 10° NNW 19:13:27 79° WSW 19:19:10 10° SSE
Resurs 01 Rocket 1.5 19:11:29 10° SSE 19:15:50 74° ENE 19:20:13 10° N
SeaSat 1 4.3 19:12:03 10° S 19:16:22 31° WSW 19:20:43 10° NW
Cosmos 1980 3.8 19:11:34 10° NNW 19:17:05 50° ENE 19:20:52 20° SE
Cosmos 2263 Rocket 3.8 19:15:02 10° SE 19:16:37 16° SE 19:16:37 16° SE
Cosmos 44 Rocket 3.5 19:14:50 10° S 19:19:29 48° ESE 19:21:21 32° ENE
Cosmos 773 Rocket 4.1 19:15:55 10° S 19:21:01 54° ESE 19:25:06 16° NNE
USA 306 4.2 19:19:19 10° NNW 19:19:32 11° NNW 19:19:32 11° NNW
ATLAS 5 CENTAUR R/B 3.2 19:17:09 10° NW 19:21:32 41° WSW 19:26:51 10° S
Cosmos 2237 Rocket 2.3 19:17:10 10° NNW 19:22:43 52° ENE 19:25:52 25° SE
PSLV R/B 3.9 19:20:29 10° S 19:24:34 61° W 19:28:38 10° NNW
COSMO-SKYMED 1 3.9 19:21:29 10° N 19:25:17 38° WNW 19:29:05 10° SW
Aureole 3 Rocket 2.5 19:22:24 10° N 19:26:21 79° W 19:29:31 10° S
BREEZE-M DEB (TANK) 4.0 19:24:03 10° WNW 19:27:37 51° SW 19:33:13 11° SE
Cosmos 2228 4.5 19:23:56 10° N 19:25:37 21° NNE 19:25:37 21° NNE
Cosmos 836 Rocket 4.4 19:29:13 10° SSW 19:34:29 89° ESE 19:39:46 10° NNE
SJ-6B 2.4 19:39:27 74° SSW 19:39:40 80° WSW 19:43:07 10° NNW
BREEZE-M DEB (TANK) 3.6 19:36:53 10° NW 19:41:22 86° NE 19:46:30 26° SE
Cosmos 2227 Rocket 2.1 19:38:44 10° S 19:44:15 59° ESE 19:45:30 47° ENE
SPOT 5 3.6 19:47:23 38° NNE 19:47:23 38° NNE 19:50:47 10° N
SL-16 R/B 3.7 19:41:36 10° N 19:44:20 21° NNE 19:44:20 21° NNE
Cosmos 2285 Rocket 4.2 19:41:08 10° NNW 19:47:33 75° WSW 19:53:53 10° S
Cosmos 1816 Rocket 4.3 19:51:29 10° S 19:57:36 77° E 20:03:48 10° N
Gbstr 26 Del rocket 4.5 19:53:13 10° SSW 19:59:41 48° SE 19:59:56 47° SE
NOSS 3-4 (A) 3.9 19:54:12 10° NNW 20:01:03 63° NE 20:02:40 52° E
NOSS 3-4 (C) 3.9 19:54:28 10° NNW 20:01:20 62° NE 20:02:53 52° E
Helios 1A Rocket 4.1 20:02:00 31° W 20:02:00 31° W 20:04:27 10° SW
Cosmos 2034 Rocket 4.1 19:57:41 10° N 20:02:53 53° NE 20:02:53 53° NE
Cosmos 1072 Rocket 4.4 19:59:16 10° N 20:05:33 82° W 20:11:41 10° S
BREEZE-M DEB (TANK) 4.2 19:47:02 10° W 20:08:41 67° NNW 20:10:46 47° NE
Tiangong 0.8 20:08:39 10° WSW 20:09:26 16° WSW 20:09:26 16° WSW
Atlas Centaur 2 3.4 20:05:52 10° WSW 20:12:13 33° S 20:12:54 32° S
CZ-4C R/B 4.3 20:15:29 10° WNW 20:18:16 15° NNW 20:21:06 11° N
CSL-04 Debris 4.5 20:26:10 62° NW 20:26:10 62° NW 20:30:47 10° NNW
CSL-04 Rocket 4.0 20:29:00 59° WNW 20:29:00 59° WNW 20:33:36 10° NNW
BREEZE-M (TANK) 3.7 20:24:53 10° WNW 20:28:32 77° SW 20:28:32 77° SW
Cosmos 2297 Rocket 4.1 20:24:49 10° WSW 20:29:34 27° NW 20:34:21 10° N
Cosmos 2344 3.7 20:53:04 10° SW 21:01:02 63° NW 21:01:16 62° NW
Cosmos 2263 Rocket 4.3 20:56:56 10° SW 20:58:24 18° SW 20:58:24 18° SW
Cosmos 2237 Rocket 4.3 21:02:04 10° NW 21:06:19 22° W 21:07:47 20° WSW
Cosmos 2227 Rocket 4.4 21:24:22 10° WSW 21:27:24 20° WNW 21:27:24 20° WNW
